DW3845 Weather Reports


Display with metric or nautical units.
time (UTC)temp
F
wind
direction
speed
MPH
gust
MPH
rain 1hr
in
rain 24hr
in
rain mn
in
humidity
%
barometer
mb
20260903091554 51 10 0.0 0.0 0.00 0.25 0.01 67 994.2
20260903090056 52 10 0.0 0.0 0.01 0.25 0.01 67 994.1
20260903084551 52 10 0.0 0.0 0.01 0.25 0.01 66 994.2
20260903083049 52 10 0.0 0.0 0.01 0.25 0.01 66 994.2
20260903081553 52 11 0.0 0.0 0.01 0.25 0.01 66 994.3
20260903080049 52 11 0.0 0.0 0.00 0.24 0.00 66 994.4
20260903074547 52 10 0.0 0.0 0.00 0.24 0.00 66 994.6
20260903071544 52 10 0.0 0.0 0.02 0.24 0.00 66 994.3
20260903070040 53 11 0.0 0.0 0.04 0.24 0.00 66 994.4
20260903064541 53 43 0.0 0.0 0.07 0.24 0.24 66 994.6
20260903063106 53 42 0.0 0.0 0.07 0.23 0.23 66 994.8
20260903061539 53 43 0.0 0.0 0.06 0.22 0.22 67 994.8
20260903060038 54 316 0.0 0.0 0.04 0.20 0.20 66 994.8
20260903054538 54 316 0.0 0.0 0.01 0.17 0.17 66 994.8
20260903053037 54 316 0.0 0.0 0.00 0.16 0.16 66 994.5
20260903051543 54 311 0.0 0.0 0.05 0.16 0.16 67 994.6
20260903050046 54 6 0.0 0.0 0.08 0.16 0.16 69 994.3
20260903044535 55 40 0.0 1.0 0.08 0.16 0.16 71 994.1
20260903043035 55 300 0.0 0.0 0.08 0.16 0.16 75 994.2
20260903041534 55 248 1.0 4.0 0.02 0.10 0.10 80 994.1
20260903040033 54 23 0.0 0.0 0.00 0.08 0.08 83 993.2
20260903034533 54 23 0.0 0.0 0.00 0.08 0.08 83 992.8
20260903033032 54 23 0.0 0.0 0.00 0.08 0.08 82 992.6
20260903031532 55 20 0.0 0.0 0.00 0.08 0.08 82 992.4
20260903030031 54 44 0.0 2.0 0.00 0.08 0.08 82 992.4
20260903024531 56 40 0.0 1.0 0.00 0.08 0.08 80 992.5
20260903023030 57 360 0.0 2.0 0.00 0.08 0.08 79 992.5
20260903021531 58 346 0.0 2.0 0.00 0.08 0.08 77 992.5
20260903020029 59 315 0.0 1.0 0.00 0.08 0.08 76 992.4
20260903014528 60 51 0.0 3.0 0.00 0.08 0.08 73 992.5
20260903013027 61 329 0.0 3.0 0.00 0.08 0.08 72 992.6
20260903011531 62 8 1.0 3.0 0.00 0.08 0.08 69 992.8
20260903010031 62 12 0.0 5.0 0.00 0.08 0.08 69 993.0
20260903004627 62 27 0.0 6.0 0.00 0.08 0.08 70 993.1
20260903003026 62 54 1.0 6.0 0.00 0.08 0.08 70 993.2
20260903001524 62 49 1.0 5.0 0.00 0.08 0.08 71 993.2
20260903000024 62 28 1.0 5.0 0.00 0.08 0.08 69 993.3
20260902234534 63 340 1.0 5.0 0.00 0.08 0.08 68 993.4
20260902233023 63 6 0.0 4.0 0.00 0.08 0.08 67 993.6
20260902231535 64 144 0.0 4.0 0.00 0.08 0.08 69 993.5
20260902230029 64 298 0.0 3.0 0.00 0.08 0.08 72 993.7
20260902224520 63 162 0.0 3.0 0.00 0.08 0.08 70 993.6
20260902223018 63 246 0.0 4.0 0.00 0.08 0.08 68 993.8
20260902221519 61 250 0.0 4.0 0.00 0.08 0.08 74 993.8
20260902220012 61 172 0.0 3.0 0.00 0.08 0.08 75 994.0
20260902214510 60 167 0.0 5.0 0.00 0.08 0.08 75 994.2
20260902213006 59 238 0.0 3.0 0.01 0.08 0.08 79 994.3
20260902211502 57 159 0.0 3.0 0.02 0.08 0.08 82 994.5
20260902210100 57 64 0.0 0.0 0.03 0.08 0.08 83 994.8
20260902204559 55 37 0.0 2.0 0.04 0.08 0.08 83 995.1
20260902203057 55 42 0.0 0.0 0.03 0.07 0.07 82 995.2
20260902201557 55 141 0.0 1.0 0.03 0.06 0.06 82 995.2
20260902200107 55 160 0.0 3.0 0.02 0.05 0.05 82 995.1
20260902194600 55 248 0.0 2.0 0.02 0.04 0.04 83 995.1
20260902193055 55 252 0.0 1.0 0.03 0.04 0.04 82 995.2
20260902191556 55 256 0.0 3.0 0.03 0.03 0.03 82 995.2
20260902190055 55 205 0.0 1.0 0.03 0.03 0.03 82 995.0
20260902184558 55 256 0.0 0.0 0.02 0.02 0.02 77 994.8
20260902183050 55 44 0.0 0.0 0.01 0.01 0.01 81 994.4
20260902181549 55 44 0.0 0.0 0.00 0.00 0.00 82 994.4
20260902180108 55 54 0.0 2.0 0.00 0.00 0.00 83 994.7
20260902174548 55 51 0.0 1.0 0.00 0.00 0.00 83 994.5
20260902173048 54 174 0.0 0.0 0.00 0.00 0.00 83 994.6
20260902171547 55 174 0.0 0.0 0.00 0.00 0.00 83 994.5
20260902170044 56 176 0.0 2.0 0.00 0.00 0.00 80 994.2
20260902164542 57 150 0.0 3.0 0.00 0.00 0.00 75 993.9
20260902163040 57 239 0.0 2.0 0.00 0.00 0.00 74 993.7
20260902161549 57 256 1.0 5.0 0.00 0.00 0.00 74 993.5
20260902160038 57 143 0.0 1.0 0.00 0.00 0.00 76 993.2
20260902154537 58 221 0.0 2.0 0.00 0.00 0.00 74 993.6
20260902153035 57 278 1.0 10.0 0.00 0.00 0.00 75 993.5
20260902151534 56 127 1.0 8.0 0.00 0.00 0.00 78 993.3
20260902150027 53 160 0.0 0.0 0.00 0.00 0.00 84 993.2
20260902144532 52 48 0.0 0.0 0.00 0.00 0.00 83 993.1
20260902143024 52 49 0.0 0.0 0.00 0.00 0.00 80 993.0
20260902141525 51 48 0.0 0.0 0.00 0.00 0.00 78 992.8
20260902140020 50 48 0.0 0.0 0.00 0.00 0.00 76 992.4
20260902134532 50 46 1.0 3.0 0.00 0.00 0.00 74 992.4
20260902133021 50 47 0.0 2.0 0.00 0.00 0.00 75 992.1
20260902131515 49 46 0.0 1.0 0.00 0.00 0.00 76 992.1
20260902130015 50 47 1.0 2.0 0.00 0.00 0.00 73 991.9
20260902124512 49 46 1.0 3.0 0.00 0.00 0.00 74 991.9
20260902123010 49 43 1.0 2.0 0.00 0.00 0.00 78 991.7
20260902121509 49 42 1.0 2.0 0.00 0.00 0.00 79 991.6
20260902120009 49 43 1.0 3.0 0.00 0.00 0.00 79 991.6
20260902114507 49 38 1.0 3.0 0.00 0.00 0.00 81 991.4
20260902113011 50 27 0.0 1.0 0.00 0.00 0.00 79 991.5
20260902111515 49 20 0.0 2.0 0.00 0.00 0.00 78 991.0
20260902110005 49 44 2.0 3.0 0.00 0.00 0.00 79 991.1
20260902104501 50 46 2.0 3.0 0.00 0.00 0.00 81 991.2
20260902103059 49 44 2.0 3.0 0.00 0.00 0.00 82 991.2
20260902101604 50 47 2.0 3.0 0.00 0.00 0.00 82 991.4
20260902100109 50 44 2.0 3.0 0.00 0.00 0.00 83 991.5
20260902094554 50 44 1.0 3.0 0.00 0.00 0.00 83 991.4
20260902093052 50 42 2.0 3.0 0.00 0.00 0.00 83 991.6